Find Kuiper-00092

NORAD ID: 64837 Int'l Des: 2025-151 Owner: KUIP Country: US Constellation: amazon-leo operational
LEOCIRCULAR

当前视图

正在加载3D地球...

About Kuiper-00092

Kuiper-00092 (NORAD 64837) is a amazon-leo constellation satellite launched Jul 16, 2025 by KUIP of US. It operates in LEO, CIRCULAR orbit with a mass of 490.00 kg.

关于 Kuiper-00092

正在加载描述...

即将过境

Passes for default location (London). Set your location on the main map for personalized predictions.

高度历史

Loading altitude history...

两行轨道根数

1 64837U 25151X 26194.07247329 .00002333 00000-0 33488-3 0 9998
2 64837 51.8998 96.1599 0000858 108.1760 251.9296 14.79941114 55222
Epoch: Jul 13, 2026 • Age: 26 hours

当前状态

高度 637.4 km
远地点 / 近地点 N/A
速度 7.54 km/s
星下点 -25.70°S, 84.53°E
发射日期 Jul 16, 2025
运行时间 0.9 years
类型 internet

技术详情

分类 Payload
质量 490.00 kg
干质量 490.00 kg
总质量 490.00 kg
长度 1.80 m
直径 0.70 m
跨度 5.00 m
形状 Box + 2 pan
制造商 KUIP
平台类型 Kuiper
阶段状态 In Orbit
所有者/国家 KUIP/US

Most Searched